GW3348 Weather Reports


time (UTC)temp
F
wind
direction
speed
knots
gust
knots
rain 1hr
in
rain 24hr
in
rain mn
in
humidity
%
barometer
mb
20260503220336 78 301 2.6 5.2 0.00 0.00 0.00 47 1009.4
20260503215832 79 316 3.5 8.7 0.00 0.00 0.00 46 1009.6
20260503215329 79 35 2.6 6.1 0.00 0.00 0.00 44 1009.6
20260503214827 78 283 3.5 7.0 0.00 0.00 0.00 46 1009.5
20260503214324 79 279 3.5 7.0 0.00 0.00 0.00 45 1009.7
20260503213822 78 357 2.6 7.8 0.00 0.00 0.00 45 1009.7
20260503213319 78 348 5.2 7.8 0.00 0.00 0.00 43 1009.7
20260503212816 78 297 4.3 9.6 0.00 0.00 0.00 45 1009.7
20260503212314 77 47 2.6 12.2 0.00 0.00 0.00 44 1009.8
20260503211811 78 304 2.6 7.0 0.00 0.00 0.00 44 1009.9
20260503211308 78 284 1.7 7.8 0.00 0.00 0.00 46 1009.8
20260503210807 78 340 2.6 8.7 0.00 0.00 0.00 47 1009.7
20260503210306 77 34 2.6 7.0 0.00 0.00 0.00 47 1010.0
20260503205800 77 283 2.6 6.1 0.00 0.00 0.00 48 1010.1
20260503205257 78 294 4.3 6.1 0.00 0.00 0.00 46 1010.0
20260503204753 78 344 3.5 7.0 0.00 0.00 0.00 47 1009.9
20260503204251 77 310 2.6 8.7 0.00 0.00 0.00 47 1010.0
20260503203748 77 268 0.9 3.5 0.00 0.00 0.00 47 1010.1
20260503203245 77 304 3.5 5.2 0.00 0.00 0.00 45 1010.2
20260503202742 76 284 4.3 4.3 0.00 0.00 0.00 48 1010.4
20260503202240 75 278 2.6 7.0 0.00 0.00 0.00 48 1010.0
20260503201738 75 321 1.7 5.2 0.00 0.00 0.00 49 1010.2
20260503201235 75 288 1.7 7.8 0.00 0.00 0.00 48 1010.5
20260503200732 76 284 4.3 7.8 0.00 0.00 0.00 47 1010.3
20260503200228 75 39 3.5 6.1 0.00 0.00 0.00 49 1010.6
20260503195725 75 342 1.7 4.3 0.00 0.00 0.00 50 1010.5
20260503195222 75 346 2.6 6.1 0.00 0.00 0.00 48 1011.0
20260503194720 75 338 3.5 6.1 0.00 0.00 0.00 48 1011.0
20260503194215 74 284 2.6 7.0 0.00 0.00 0.00 49 1010.8
20260503193711 74 261 0.0 5.2 0.00 0.00 0.00 49 1011.1
20260503193208 74 340 0.9 6.1 0.00 0.00 0.00 50 1011.1
20260503192703 73 8 1.7 4.3 0.00 0.00 0.00 48 1011.1
20260503192159 73 306 2.6 7.0 0.00 0.00 0.00 48 1011.2
20260503191655 73 294 3.5 5.2 0.00 0.00 0.00 48 1011.3
20260503191153 73 10 3.5 7.0 0.00 0.00 0.00 48 1011.3
20260503190649 73 291 5.2 7.0 0.00 0.00 0.00 48 1011.4
20260503190146 72 304 10.4 11.3 0.00 0.00 0.00 48 1011.3
20260503185643 72 274 1.7 8.7 0.00 0.00 0.00 52 1011.5
20260503185138 72 283 3.5 9.6 0.00 0.00 0.00 47 1011.5
20260503184634 72 300 4.3 7.8 0.00 0.00 0.00 50 1011.6
20260503184130 72 279 2.6 7.0 0.00 0.00 0.00 51 1011.6
20260503183627 72 276 1.7 8.7 0.00 0.00 0.00 52 1011.7
20260503183124 72 327 3.5 6.1 0.00 0.00 0.00 54 1011.7
20260503182622 71 317 3.5 7.8 0.00 0.00 0.00 57 1011.4
20260503182120 70 286 2.6 7.8 0.00 0.00 0.00 59 1011.7
20260503181617 70 261 1.7 7.8 0.00 0.00 0.00 59 1011.7
20260503181114 70 347 2.6 7.0 0.00 0.00 0.00 56 1011.8
20260503180611 70 26 1.7 9.6 0.00 0.00 0.00 58 1011.9
20260503180109 69 276 2.6 11.3 0.00 0.00 0.00 61 1012.0
20260503175605 70 322 1.7 4.3 0.00 0.00 0.00 58 1012.1
20260503175102 69 0 2.6 6.1 0.00 0.00 0.00 59 1012.2
20260503174559 69 310 1.7 5.2 0.00 0.00 0.00 60 1012.1
20260503174056 68 309 0.0 4.3 0.00 0.00 0.00 63 1012.2
20260503173551 69 32 1.7 5.2 0.00 0.00 0.00 61 1012.1
20260503173047 68 351 3.5 5.2 0.00 0.00 0.00 63 1012.2
20260503172545 68 348 0.9 4.3 0.00 0.00 0.00 62 1012.4
20260503172042 67 307 1.7 2.6 0.00 0.00 0.00 64 1012.3
20260503171538 67 344 1.7 3.5 0.00 0.00 0.00 63 1012.4
20260503171036 66 340 1.7 3.5 0.00 0.00 0.00 64 1012.4
20260503170532 66 355 2.6 3.5 0.00 0.00 0.00 64 1012.5
20260503150907 55 212 0.0 2.6 0.00 0.00 0.00 85 1012.8
20260503150403 54 254 0.9 3.5 0.00 0.00 0.00 86 1012.9
20260503131256 49 8 1.7 2.6 0.00 0.00 0.00 92 1012.5
20260503130754 49 55 0.0 2.6 0.00 0.00 0.00 92 1012.5
20260503130251 49 69 1.7 2.6 0.00 0.00 0.00 92 1012.4
20260503120217 50 74 0.0 2.6 0.00 0.00 0.00 91 1012.8
20260503110645 51 77 2.6 2.6 0.00 0.00 0.00 90 1012.7
20260503110142 51 97 2.6 3.5 0.00 0.00 0.00 90 1012.7
20260503100109 52 84 1.7 2.6 0.00 0.00 0.00 88 1012.5
20260503081458 54 88 1.7 3.5 0.00 0.00 0.00 82 1012.9
20260503080955 54 92 2.6 4.3 0.00 0.00 0.00 81 1012.7
20260503080451 54 85 1.7 3.5 0.00 0.00 0.00 81 1012.7
20260503072928 55 99 2.6 3.5 0.00 0.00 0.00 79 1012.5
20260503072425 55 92 1.7 2.6 0.00 0.00 0.00 78 1012.8
20260503071922 56 93 2.6 3.5 0.00 0.00 0.00 77 1012.5
20260503071419 56 87 2.6 3.5 0.00 0.00 0.00 76 1012.6
20260503070915 57 85 1.7 4.3 0.00 0.00 0.00 75 1012.6
20260503070412 57 94 2.6 4.3 0.00 0.00 0.00 74 1012.8
20260503060338 60 68 1.7 2.6 0.00 0.00 0.00 64 1012.2
20260503054826 59 63 0.9 2.6 0.00 0.00 0.00 68 1012.3
20260503054322 59 62 1.7 2.6 0.00 0.00 0.00 67 1012.3
20260503053820 59 97 1.7 2.6 0.00 0.00 0.00 69 1012.4
20260503053318 60 79 1.7 2.6 0.00 0.00 0.00 69 1012.3
20260503052814 60 81 1.7 2.6 0.00 0.00 0.00 68 1012.4
20260503052311 60 79 1.7 2.6 0.00 0.00 0.00 67 1012.3
20260503051807 61 98 1.7 2.6 0.00 0.00 0.00 65 1012.4
20260503051304 62 68 1.7 2.6 0.00 0.00 0.00 63 1012.2
20260503050800 62 73 1.7 1.7 0.00 0.00 0.00 61 1012.1
20260503050257 62 110 0.9 2.6 0.00 0.00 0.00 60 1012.2
20260503045754 63 77 0.9 1.7 0.00 0.00 0.00 60 1012.2
20260503045252 63 97 0.9 1.7 0.00 0.00 0.00 59 1012.0
20260503044747 63 340 1.7 2.6 0.00 0.00 0.00 59 1011.9
20260503044239 63 75 0.9 3.5 0.00 0.00 0.00 59 1012.1
20260503043736 63 59 0.0 2.6 0.00 0.00 0.00 59 1011.9
20260503043228 64 44 2.6 2.6 0.00 0.00 0.00 58 1012.0
20260503042723 64 68 0.9 2.6 0.00 0.00 0.00 59 1011.9
20260503042221 64 82 0.9 1.7 0.00 0.00 0.00 59 1011.9
20260503041716 63 83 0.0 2.6 0.00 0.00 0.00 59 1011.7
20260503041214 63 35 0.9 0.9 0.00 0.00 0.00 60 1011.8
20260503040711 63 37 0.0 1.7 0.00 0.00 0.00 60 1011.6
20260503040209 64 72 0.0 1.7 0.00 0.00 0.00 59 1011.6
20260503035706 64 124 0.0 1.7 0.00 0.00 0.00 58 1011.4
20260503035203 65 144 0.0 1.7 0.00 0.00 0.00 58 1011.6
20260503034701 66 296 0.0 3.5 0.00 0.00 0.00 56 1011.3
20260503034157 66 315 0.0 1.7 0.00 0.00 0.00 55 1011.2
20260503033655 66 309 2.6 4.3 0.00 0.00 0.00 54 1011.2
20260503033152 66 328 1.7 2.6 0.00 0.00 0.00 54 1011.0
20260503032650 66 303 1.7 2.6 0.00 0.00 0.00 54 1010.8
20260503032149 67 309 0.0 1.7 0.00 0.00 0.00 54 1010.7
20260503031645 68 332 0.0 1.7 0.00 0.00 0.00 52 1011.0
20260503031143 68 316 1.7 2.6 0.00 0.00 0.00 51 1010.8
20260503030639 69 326 1.7 3.5 0.00 0.00 0.00 50 1010.7
20260503030136 69 338 2.6 2.6 0.00 0.00 0.00 49 1011.1
20260503025632 70 295 2.6 4.3 0.00 0.00 0.00 48 1010.7
20260503025131 69 352 0.9 3.5 0.00 0.00 0.00 48 1011.0
20260503024627 70 300 3.5 4.3 0.00 0.00 0.00 48 1010.6
20260503024124 70 328 0.0 3.5 0.00 0.00 0.00 48 1011.0
20260503023621 70 3 3.5 6.1 0.00 0.00 0.00 47 1010.6
20260503023118 71 294 2.6 4.3 0.00 0.00 0.00 46 1010.7
20260503022614 70 301 1.7 6.1 0.00 0.00 0.00 46 1010.7
20260503022108 71 338 2.6 9.6 0.00 0.00 0.00 46 1010.8
20260503021606 71 302 6.1 8.7 0.00 0.00 0.00 45 1010.7
20260503021103 71 320 2.6 6.1 0.00 0.00 0.00 45 1010.8
20260503020559 71 347 4.3 7.0 0.00 0.00 0.00 45 1010.4
20260503020056 71 304 2.6 6.1 0.00 0.00 0.00 45 1010.6
20260503015553 71 335 3.5 7.8 0.00 0.00 0.00 44 1010.7
20260503015051 72 314 3.5 7.0 0.00 0.00 0.00 44 1011.0
20260503014546 71 289 5.2 7.8 0.00 0.00 0.00 43 1010.8
20260503014044 72 313 3.5 10.4 0.00 0.00 0.00 44 1010.8
20260503013541 72 250 1.7 9.6 0.00 0.00 0.00 43 1011.1
20260503013039 72 302 6.1 9.6 0.00 0.00 0.00 42 1011.1
20260503012536 72 289 5.2 11.3 0.00 0.00 0.00 42 1011.2
20260503012032 72 15 3.5 10.4 0.00 0.00 0.00 42 1011.2
20260503011529 72 308 6.1 12.2 0.00 0.00 0.00 42 1011.4
20260503011027 72 327 5.2 13.9 0.00 0.00 0.00 42 1011.0
20260503010523 73 307 7.8 12.2 0.00 0.00 0.00 42 1011.1
20260503010021 73 302 8.7 11.3 0.00 0.00 0.00 41 1011.1
20260503005517 73 306 7.8 14.8 0.00 0.00 0.00 44 1011.2
20260503005015 73 285 3.5 7.8 0.00 0.00 0.00 48 1011.2
20260503004510 73 352 0.9 10.4 0.00 0.00 0.00 48 1011.3
20260503004009 74 326 8.7 13.0 0.00 0.00 0.00 48 1011.3
20260503003505 73 314 4.3 10.4 0.00 0.00 0.00 50 1011.2
20260503003003 74 315 2.6 7.8 0.00 0.00 0.00 51 1011.2
20260503002500 74 287 5.2 10.4 0.00 0.00 0.00 51 1011.4
20260503001955 74 293 3.5 9.6 0.00 0.00 0.00 50 1011.6
20260503001452 73 301 5.2 11.3 0.00 0.00 0.00 51 1011.3
20260503000950 73 262 1.7 7.0 0.00 0.00 0.00 52 1011.3
20260503000447 73 293 7.8 8.7 0.00 0.00 0.00 52 1011.4
20260502235944 74 301 3.5 8.7 0.00 0.00 0.00 51 1011.6
20260502235441 74 295 2.6 5.2 0.00 0.00 0.00 51 1011.6
20260502234939 74 275 1.7 9.6 0.00 0.00 0.00 52 1011.6
20260502234435 73 300 5.2 9.6 0.00 0.00 0.00 52 1011.6
20260502233932 74 325 3.5 10.4 0.00 0.00 0.00 53 1011.7
20260502233427 74 289 2.6 7.0 0.00 0.00 0.00 53 1011.4
20260502232925 74 299 3.5 11.3 0.00 0.00 0.00 53 1011.7
20260502232421 74 266 2.6 11.3 0.00 0.00 0.00 53 1011.8
20260502231918 74 286 4.3 7.0 0.00 0.00 0.00 53 1011.9
20260502231415 74 310 6.1 9.6 0.00 0.00 0.00 55 1012.0
20260502230913 75 294 4.3 6.1 0.00 0.00 0.00 54 1011.9
20260502230411 74 280 1.7 7.8 0.00 0.00 0.00 54 1012.1
20260502225908 74 326 1.7 9.6 0.00 0.00 0.00 55 1012.2
20260502225358 73 295 4.3 8.7 0.00 0.00 0.00 55 1012.2
20260502224856 73 324 6.1 8.7 0.00 0.00 0.00 55 1012.4
20260502224351 74 5 2.6 10.4 0.00 0.00 0.00 55 1012.3
20260502223849 73 287 5.2 8.7 0.00 0.00 0.00 56 1012.4
20260502223347 72 265 2.6 9.6 0.00 0.00 0.00 58 1012.4
20260502222844 73 320 4.3 9.6 0.00 0.00 0.00 57 1012.7
20260502222342 73 299 6.1 7.0 0.00 0.00 0.00 57 1012.8
20260502221837 72 313 3.5 9.6 0.00 0.00 0.00 58 1012.8
20260502221334 73 2 2.6 7.0 0.00 0.00 0.00 58 1012.8
20260502220831 73 283 6.1 11.3 0.00 0.00 0.00 58 1012.8